Georgetown, SC

8:26 PM EDT on September 24, 2017 (GMT -0400)
Georgetown County

Weather History for KGGE - February, 2015

Change the Weather History Date:

Wednesday, February 4, 2015

  Actual Average Record
Temperature  
Mean Temperature 40 °F -  
Max Temperature 53 °F 61 °F 71 °F (2012)
Min Temperature 28 °F 37 °F 28 °F (2013)
Degree Days  
Heating Degree Days 24    
Moisture  
Dew Point 39 °F    
Average Humidity 89    
Maximum Humidity 100    
Minimum Humidity 54    
Precipitation  
Precipitation 0.26 in - - ()
Sea Level Pressure  
Sea Level Pressure 30.24 in    
Wind  
Wind Speed 2 mph (NNE)    
Max Wind Speed 8 mph    
Max Gust Speed -    
Visibility 9 miles    
Events Rain    
Averages and records for this station are not official NWS values.
T = Trace of Precipitation, MM = Missing Value Source: NWS Daily Summary

Daily Weather History Graph

Daily Weather History Graph

Search for Another Location

Airport or City:

Trip Planner

Search our weather history database for the weather conditions in past years. The results will help you decide how hot, cold, wet, or windy it might be!

Date:

Astronomy

Feb. 04, 2015 Rise Set
Actual Time 7:11 AM EST 5:51 PM EST
Civil Twilight 6:45 AM EST 6:17 PM EST
Nautical Twilight 6:15 AM EST 6:47 PM EST
Astronomical Twilight 5:46 AM EST 7:16 PM EST
Moon 6:45 PM EST (2/4) 7:17 AM EST (2/4)
Length of Visible Light 11h 32m
Length of Day
10h 40m
Full, 100% of the Moon is Illuminated
Feb 4
Full
Feb 11
Last Quarter
Feb 18
New
Feb 25
First Quarter
Mar 5
Full

Hourly Weather History & Observations

Time (EST) Temp. Windchill Dew Point Humidity Pressure Visibility Wind Dir Wind Speed Gust Speed Precip Events Conditions
12:15 AM 28.4 °F - 28.4 °F 100% 30.37 in 10.0 mi Calm Calm - N/A   Clear
12:35 AM 28.4 °F - 28.4 °F 100% 30.37 in 10.0 mi Calm Calm - N/A   Clear
12:55 AM 30.2 °F - 30.2 °F 100% 30.37 in 10.0 mi Calm Calm - N/A   Clear
1:15 AM 30.2 °F - 30.2 °F 100% 30.37 in 10.0 mi Calm Calm - N/A   Clear
1:35 AM 30.2 °F - 30.2 °F 100% 30.36 in 10.0 mi Calm Calm - N/A   Clear
1:55 AM 30.2 °F - 30.2 °F 100% 30.36 in 10.0 mi Calm Calm - N/A   Clear
2:15 AM 30.2 °F - 30.2 °F 100% 30.35 in 10.0 mi Calm Calm - N/A   Clear
2:35 AM 30.2 °F - 30.2 °F 100% 30.35 in 10.0 mi Calm Calm - N/A   Clear
2:55 AM 30.2 °F - 30.2 °F 100% 30.34 in 10.0 mi Calm Calm - N/A   Clear
3:15 AM 30.2 °F - 30.2 °F 100% 30.34 in 10.0 mi Calm Calm - N/A   Clear
3:35 AM 30.2 °F - 30.2 °F 100% 30.33 in 10.0 mi Calm Calm - N/A   Clear
3:55 AM 30.2 °F - 30.2 °F 100% 30.33 in 10.0 mi Calm Calm - N/A   Clear
4:15 AM 30.2 °F - 30.2 °F 100% 30.33 in 10.0 mi Calm Calm - N/A   Clear
4:35 AM 30.2 °F - 30.2 °F 100% 30.33 in 10.0 mi Calm Calm - N/A   Clear
4:55 AM 32.0 °F - 32.0 °F 100% 30.33 in 10.0 mi Calm Calm - N/A   Clear
5:15 AM 32.0 °F - 32.0 °F 100% 30.32 in 10.0 mi Calm Calm - N/A   Clear
5:35 AM 32.0 °F - 32.0 °F 100% 30.32 in 10.0 mi Calm Calm - N/A   Clear
5:55 AM 32.0 °F 28.7 °F 32.0 °F 100% 30.31 in 10.0 mi NNE 3.5 mph - N/A   Clear
6:15 AM 32.0 °F - 32.0 °F 100% 30.32 in 10.0 mi Calm Calm - N/A   Scattered Clouds
6:35 AM 32.0 °F 28.7 °F 32.0 °F 100% 30.32 in 10.0 mi NNE 3.5 mph - N/A   Mostly Cloudy
6:55 AM 32.0 °F 28.7 °F 32.0 °F 100% 30.32 in 10.0 mi NNE 3.5 mph - N/A   Scattered Clouds
7:15 AM 33.8 °F 30.8 °F 32.0 °F 93% 30.32 in 10.0 mi North 3.5 mph - N/A   Scattered Clouds
7:35 AM 32.0 °F 28.7 °F 32.0 °F 100% 30.33 in 10.0 mi NNE 3.5 mph - N/A   Scattered Clouds
7:55 AM 32.0 °F - 32.0 °F 100% 30.34 in 10.0 mi Calm Calm - N/A   Scattered Clouds
8:15 AM 35.6 °F 32.8 °F 33.8 °F 93% 30.34 in 10.0 mi North 3.5 mph - N/A   Scattered Clouds
8:35 AM 39.2 °F 35.9 °F 35.6 °F 87% 30.34 in 10.0 mi NNE 4.6 mph - N/A   Scattered Clouds
8:55 AM 41.0 °F 39.0 °F 37.4 °F 87% 30.34 in 10.0 mi NNE 3.5 mph - N/A   Mostly Cloudy
9:15 AM 44.6 °F 42.2 °F 37.4 °F 76% 30.35 in 10.0 mi NNE 4.6 mph - N/A   Scattered Clouds
9:35 AM 46.4 °F 42.9 °F 35.6 °F 66% 30.35 in 10.0 mi NNE 6.9 mph - N/A   Scattered Clouds
9:55 AM 46.4 °F 43.5 °F 32.0 °F 57% 30.35 in 10.0 mi NE 5.8 mph - N/A   Mostly Cloudy
10:15 AM 50.0 °F - 33.8 °F 54% 30.34 in 10.0 mi ENE 6.9 mph - N/A   Scattered Clouds
10:35 AM 50.0 °F - 33.8 °F 54% 30.33 in 10.0 mi NE 6.9 mph - N/A   Clear
10:55 AM 51.8 °F - 35.6 °F 54% 30.32 in 10.0 mi NE 4.6 mph - N/A   Clear
11:15 AM 51.8 °F - 35.6 °F 54% 30.32 in 10.0 mi NE 6.9 mph - N/A   Clear
11:35 AM 51.8 °F - 39.2 °F 62% 30.31 in 10.0 mi NE 6.9 mph - N/A   Clear
11:55 AM 53.6 °F - 41.0 °F 62% 30.30 in 10.0 mi NE 6.9 mph - N/A   Clear
12:15 PM 53.6 °F - 42.8 °F 67% 30.28 in 10.0 mi ENE 8.1 mph - N/A   Clear
12:35 PM 53.6 °F - 42.8 °F 67% 30.26 in 10.0 mi ENE 6.9 mph - N/A   Clear
12:55 PM 53.6 °F - 42.8 °F 67% 30.24 in 10.0 mi NE 6.9 mph - N/A   Clear
1:15 PM 53.6 °F - 42.8 °F 67% 30.22 in 10.0 mi NE 8.1 mph - N/A   Clear
1:35 PM 53.6 °F - 44.6 °F 72% 30.21 in 10.0 mi NNE 8.1 mph - N/A   Clear
1:55 PM 53.6 °F - 44.6 °F 72% 30.21 in 10.0 mi NE 8.1 mph - N/A   Clear
2:15 PM 53.6 °F - 44.6 °F 72% 30.20 in 10.0 mi NE 4.6 mph - N/A   Clear
2:35 PM 53.6 °F - 46.4 °F 77% 30.19 in 10.0 mi ENE 6.9 mph - N/A   Scattered Clouds
2:55 PM 53.6 °F - 46.4 °F 77% 30.19 in 10.0 mi NE 6.9 mph - N/A   Clear
3:35 PM 53.6 °F - 46.4 °F 77% 30.17 in 10.0 mi NNE 4.6 mph - N/A   Scattered Clouds
3:55 PM 53.6 °F - 46.4 °F 77% 30.16 in 10.0 mi NE 6.9 mph - N/A   Clear
4:15 PM 53.6 °F - 46.4 °F 77% 30.15 in 10.0 mi NNE 6.9 mph - N/A   Clear
4:35 PM 51.8 °F - 46.4 °F 82% 30.15 in 10.0 mi NNE 5.8 mph - N/A   Clear
4:55 PM 51.8 °F - 46.4 °F 82% 30.14 in 10.0 mi NNE 3.5 mph - N/A   Mostly Cloudy
5:15 PM 51.8 °F - 46.4 °F 82% 30.14 in 10.0 mi NNE 4.6 mph - N/A   Mostly Cloudy
5:35 PM 51.8 °F - 48.2 °F 88% 30.14 in 10.0 mi Calm Calm - N/A   Drizzle
5:55 PM 50.0 °F - 50.0 °F 100% 30.14 in 10.0 mi North 3.5 mph - N/A   Drizzle
6:15 PM 50.0 °F - 50.0 °F 100% 30.14 in 7.0 mi Calm Calm - 0.01 in   Drizzle
6:35 PM 50.0 °F - 50.0 °F 100% 30.14 in 7.0 mi Calm Calm - 0.01 in   Drizzle
6:55 PM 50.0 °F - 50.0 °F 100% 30.13 in 5.0 mi Calm Calm - 0.03 in   Drizzle
7:15 PM 48.2 °F - 48.2 °F 100% 30.13 in 5.0 mi WNW 4.6 mph - N/A   Drizzle
7:35 PM 48.2 °F - 48.2 °F 100% 30.13 in 7.0 mi WNW 5.8 mph - 0.01 in Rain Rain
7:55 PM 48.2 °F - 48.2 °F 100% 30.12 in 7.0 mi WNW 5.8 mph - 0.03 in Rain Light Rain
8:15 PM 46.4 °F 44.3 °F 46.4 °F 100% 30.12 in 7.0 mi WNW 4.6 mph - 0.01 in Rain Light Rain
8:35 PM 46.4 °F 44.3 °F 46.4 °F 100% 30.12 in 10.0 mi NW 4.6 mph - 0.02 in   Drizzle
8:55 PM 46.4 °F 44.3 °F 46.4 °F 100% 30.12 in 10.0 mi WNW 4.6 mph - 0.04 in Rain Light Rain
9:15 PM 46.4 °F 45.2 °F 46.4 °F 100% 30.11 in 7.0 mi NW 3.5 mph - 0.02 in Rain Light Rain
9:35 PM 46.4 °F 45.2 °F 46.4 °F 100% 30.11 in 10.0 mi WNW 3.5 mph - 0.03 in   Drizzle
9:55 PM 46.4 °F 45.2 °F 46.4 °F 100% 30.10 in 10.0 mi NNW 3.5 mph - 0.04 in Rain Rain
10:15 PM 46.4 °F 45.2 °F 46.4 °F 100% 30.10 in 7.0 mi WNW 3.5 mph - 0.02 in Rain Rain
10:35 PM 46.4 °F - 46.4 °F 100% 30.09 in 7.0 mi Calm Calm - 0.04 in Rain Light Rain
10:55 PM 46.4 °F - 46.4 °F 100% 30.08 in 7.0 mi Calm Calm - 0.06 in Rain Light Rain
11:15 PM 46.4 °F - 46.4 °F 100% 30.08 in 7.0 mi Calm Calm - 0.01 in Rain Rain
11:35 PM 46.4 °F - 46.4 °F 100% 30.07 in 7.0 mi Calm Calm - 0.04 in Rain Light Rain
11:55 PM 44.6 °F 42.2 °F 44.6 °F 100% 30.06 in 7.0 mi NNW 4.6 mph - 0.06 in Rain Light Rain